Location: Crabtree
(36.2040°N, 82.1040°W)
Time: 20:29:22
(UTC+00:00)

Tiangong - Visible Passes

Search period start: 28 September 2023 00:00
Search period end: 08 October 2023 00:00
Orbit: 373 x 384 km, 41.5° (Epoch: 28 September)

Date Brightness Start Highest point End Pass type
(mag) Time Alt. Az. Time Alt. Az. Time Alt. Az.
28 Sep 1.2 01:35:37 10° WSW 01:35:47 11° WSW 01:35:47 11° WSW visible
29 Sep -2.2 00:34:01 10° SW 00:37:07 65° SSE 00:37:29 57° ESE visible
30 Sep -0.3 01:09:09 10° W 01:11:07 31° WNW 01:11:07 31° WNW visible
01 Oct -2.1 00:07:20 10° WSW 00:10:27 76° NNW 00:12:29 20° ENE visible
02 Oct -1.1 00:42:36 10° W 00:45:33 36° N 00:45:50 35° N visible
02 Oct -1.5 23:40:37 10° W 23:43:40 50° NNW 23:46:44 10° ENE visible
03 Oct 0.6 01:17:56 10° WNW 01:19:05 18° NW 01:19:05 18° NW visible
04 Oct -0.8 00:15:55 10° WNW 00:18:45 31° N 00:20:09 21° NE visible
05 Oct -0.4 00:51:03 10° WNW 00:53:15 27° NNW 00:53:15 27° NNW visible
05 Oct -0.7 23:49:02 10° WNW 23:51:51 29° N 23:54:14 13° ENE visible
06 Oct 1.2 01:25:51 10° WNW 01:26:18 13° WNW 01:26:18 13° WNW visible
07 Oct -1.2 00:23:57 10° WNW 00:26:52 35° N 00:27:15 33° NNE visible
